Location: Observatoire
(46.1952°N, 5.3391°E)
Time: 19:42:53
(UTC+01:00)

Explorer 7 - Pass Details

Date: 20 February 2026
Orbit: 430 x 541 km, 50.2° (Epoch: 10 March)

Event Time Altitude Azimuth Distance (km) Brightness Sun altitude
Rises 13:21:42 0° 185° (S) 2,388 11.2 32.6°
Maximum altitude 13:26:03 10° 132° (SE) 1,552 9.6 32.5°
Drops below altitude 10° 13:26:24 10° 126° (SE) 1,561 9.6 32.5°
Sets 13:30:29 0° 80° (E) 2,459 10.0 32.4°
